Location: Ljubljana
(46.0550°N, 14.5140°E)
Time: 04:39:45
(UTC+01:00)

Amateur Radio Satellites - All Passes

Search period start: 13 December 2017 04:09
Search period end: 14 December 2017 04:09
Location: Ljubljana, 46.0550°N, 14.5140°E

Satellite Date Start Highest point End Downlink Frequencies (MHz)
Time Altitude Azimuth
DOVE 4 13 Dec 04:12:23 04:16:01 23° 92° (E) 04:19:29 437.250
KKS-1 13 Dec 04:29:20 04:33:48 85° 253° (WSW) 04:38:18 437.445
BEESAT 3 13 Dec 04:38:18 04:42:09 47° 49° (NE) 04:45:54 437.485
STRAND 1 13 Dec 04:51:14 04:53:12 12° 55° (NE) 04:55:09 437.568
AO-7 13 Dec 04:56:24 05:04:22 51° 299° (WNW) 05:12:20 .
CUTE-I 13 Dec 05:00:21 05:02:36 13° 87° (E) 05:04:49 437.470
BEESAT 2 13 Dec 05:12:55 05:16:38 34° 45° (NE) 05:20:18 435.950
M-CUBED/EXP-1 PRIME 13 Dec 05:13:58 05:17:12 19° 305° (NW) 05:20:20 437.505
STARS 13 Dec 05:18:40 05:23:02 64° 258° (WSW) 05:27:25 437.465
LilacSat-2 13 Dec 05:20:53 05:23:55 22° 94° (E) 05:26:57 437.200
ITAMSAT 1 13 Dec 05:28:36 05:32:19 20° 300° (WNW) 05:36:02 435.822/435.867
AO-85 13 Dec 05:32:25 05:36:15 24° 39° (NE) 05:40:17 145.980
PCSat 13 Dec 05:34:37 05:38:13 18° 255° (WSW) 05:41:49 145.827
FO-29 13 Dec 05:37:23 05:42:33 20° 52° (NE) 05:47:42 435.910
XW-2D 13 Dec 05:37:53 05:41:21 31° 96° (E) 05:44:48 145.860 - 145.880
DOVE 4 13 Dec 05:49:35 05:53:53 39° 291° (WNW) 05:57:56 437.250
KAITUO 1B 13 Dec 05:51:45 05:55:11 31° 96° (E) 05:58:35 145.475/437.950
NUDT-PHONESAT 13 Dec 05:51:55 05:55:16 29° 96° (E) 05:58:34 437.300
XW-2B 13 Dec 05:53:30 05:57:14 45° 99° (E) 06:00:56 145.730 - 145.750
HO-68 13 Dec 05:55:23 06:00:44 22° 90° (E) 06:06:02 435.675
YUBILEINY 13 Dec 06:02:15 06:07:11 16° 308° (NW) 06:12:10 435.215
CUTE 1.7 + AOD 2 13 Dec 06:06:39 06:09:38 18° 91° (E) 06:12:37 437.475
XW-2F 13 Dec 06:07:27 06:11:17 63° 101° (E) 06:15:04 145.980 - 146.000
BEESAT 3 13 Dec 06:16:33 06:19:20 19° 247° (WSW) 06:22:05 437.485
XW-2C 13 Dec 06:20:41 06:24:33 83° 287° (WNW) 06:28:24 145.795 - 145.815
STRAND 1 13 Dec 06:26:24 06:31:31 75° 73° (ENE) 06:36:38 437.568
CUBEBUG 2 13 Dec 06:32:27 06:35:37 20° 93° (E) 06:38:51 437.445
UWE-3 13 Dec 06:37:24 06:39:32 13° 90° (E) 06:41:40 435.000/436.395/437.385
CUTE-I 13 Dec 06:38:01 06:43:24 89° 106° (ESE) 06:48:43 437.470
NO-84 13 Dec 06:38:10 06:40:16 17° 129° (SE) 06:42:28 435.350 FM
BEESAT 2 13 Dec 06:50:47 06:54:16 28° 244° (WSW) 06:57:42 435.950
AO-7 13 Dec 06:51:08 06:55:13 15° 322° (NW) 06:59:19 .
LilacSat-2 13 Dec 06:54:45 06:58:14 32° 291° (WNW) 07:01:42 437.200
XW-2A 13 Dec 06:59:57 07:01:58 15° 92° (E) 07:03:59 145.665 - 145.685
ZACube-1 13 Dec 07:06:52 07:09:23 15° 90° (E) 07:11:55 437.345
AO-85 13 Dec 07:12:19 07:17:02 66° 237° (WSW) 07:22:06 145.980
XW-2D 13 Dec 07:12:20 07:15:22 22° 293° (WNW) 07:18:22 145.860 - 145.880
FO-29 13 Dec 07:18:37 07:26:19 73° 71° (ENE) 07:34:09 435.910
SEEDS 13 Dec 07:22:31 07:26:47 70° 102° (ESE) 07:31:00 437.485
NUDT-PHONESAT 13 Dec 07:26:00 07:28:57 22° 293° (WNW) 07:31:53 437.300
KAITUO 1B 13 Dec 07:26:02 07:28:59 22° 293° (WNW) 07:31:54 145.475/437.950
XW-2B 13 Dec 07:28:37 07:31:03 16° 296° (WNW) 07:33:29 145.730 - 145.750
Oscar 11 13 Dec 07:30:12 07:32:47 15° 90° (E) 07:35:21 .
AO-73 13 Dec 07:41:08 07:44:56 29° 95° (E) 07:48:47 145.935
CUTE 1.7 + AOD 2 13 Dec 07:41:35 07:45:42 46° 289° (WNW) 07:49:48 437.475
HO-68 13 Dec 07:42:01 07:49:12 78° 290° (WNW) 07:56:20 435.675
XW-2F 13 Dec 07:43:13 07:44:52 12° 298° (WNW) 07:46:30 145.980 - 146.000
AAUSAT CUBESAT 2 13 Dec 07:47:47 07:51:55 57° 100° (E) 07:56:00 437.432
STRAND 1 13 Dec 08:08:21 08:11:15 15° 271° (W) 08:14:10 437.568
CUBEBUG 2 13 Dec 08:08:27 08:12:24 40° 289° (WNW) 08:16:26 437.445
UWE-3 13 Dec 08:12:08 08:16:22 64° 287° (WNW) 08:20:42 435.000/436.395/437.385
NO-84 13 Dec 08:14:01 08:17:08 58° 329° (NNW) 08:20:31 435.350 FM
CUTE-I 13 Dec 08:19:39 08:22:43 16° 304° (NW) 08:25:46 437.470
XW-2A 13 Dec 08:31:38 08:34:48 36° 289° (WNW) 08:37:58 145.665 - 145.685
PRISM 13 Dec 08:31:44 08:34:26 17° 62° (ENE) 08:37:07 437.425
O/OREOS (USA 219) 13 Dec 08:41:17 08:45:46 60° 111° (ESE) 08:50:18 437.305
ZACube-1 13 Dec 08:41:45 08:46:00 58° 287° (WNW) 08:50:19 437.345
TIGRISAT 13 Dec 08:47:20 08:51:36 66° 73° (ENE) 08:55:49 435.000
UNISAT 6 13 Dec 08:50:01 08:54:19 77° 76° (ENE) 08:58:36 437.425
SEEDS 13 Dec 08:59:47 09:01:54 14° 299° (WNW) 09:04:02 437.485
Oscar 11 13 Dec 09:04:59 09:09:17 57° 287° (WNW) 09:13:33 .
FO-29 13 Dec 09:05:33 09:11:55 27° 271° (W) 09:18:24 435.910
DELFI C3 13 Dec 09:08:34 09:12:08 32° 96° (E) 09:15:41 145.870
AIST 2D 13 Dec 09:11:16 09:12:42 12° 63° (ENE) 09:14:09 435.315
AO-73 13 Dec 09:17:22 09:21:07 30° 292° (WNW) 09:24:56 145.935
AAUSAT CUBESAT 2 13 Dec 09:24:25 09:26:54 16° 298° (WNW) 09:29:23 437.432
HO-68 13 Dec 09:31:12 09:35:51 19° 310° (NW) 09:40:29 435.675
NANOSAT C BR1 13 Dec 09:41:25 09:42:18 11° 58° (ENE) 09:43:10 145.865
Max Valier Satellite 13 Dec 09:42:57 09:46:38 55° 100° (E) 09:50:17 145.860
NO-84 13 Dec 09:52:19 09:54:58 21° 350° (N) 09:57:46 435.350 FM
EO-79 13 Dec 09:53:31 09:56:05 16° 62° (ENE) 09:58:38 145.935-145.965
PRISM 13 Dec 10:05:14 10:09:17 52° 259° (W) 10:13:23 437.425
POLYITAN 1 13 Dec 10:14:55 10:18:21 25° 66° (ENE) 10:21:47 437.675
EO-88 13 Dec 10:15:35 10:19:16 86° 285° (WNW) 10:22:56 145.990 - 145.960
O/OREOS (USA 219) 13 Dec 10:22:16 10:25:36 19° 310° (NW) 10:28:55 437.305
TIGRISAT 13 Dec 10:26:47 10:28:43 13° 271° (W) 10:30:39 435.000
UNISAT 6 13 Dec 10:30:26 10:31:33 11° 272° (W) 10:32:41 437.425
QB50P2 13 Dec 10:39:42 10:43:45 49° 72° (ENE) 10:47:48 145.880/145.840
AIST 2D 13 Dec 10:42:00 10:45:25 52° 260° (W) 10:48:54 435.315
DELFI C3 13 Dec 10:43:36 10:46:43 23° 294° (WNW) 10:49:49 145.870
Oscar 19 13 Dec 10:47:27 10:48:00 10° 52° (NE) 10:48:33 437.125/150
DUCHIFAT 1 13 Dec 10:48:05 10:52:00 42° 70° (ENE) 10:55:57 145.980
LO-87 13 Dec 10:52:30 10:55:42 31° 97° (E) 10:58:52 145.935 - 145.965
ESTCUBE 1 13 Dec 10:54:17 10:58:13 28° 95° (E) 11:02:07 437.505/2401.250
nSIGHT-1 13 Dec 11:05:33 11:06:31 11° 132° (SE) 11:07:29 .
Gurwin Techsat 1B 13 Dec 11:12:08 11:14:37 13° 55° (NE) 11:17:06 435.225
NANOSAT C BR1 13 Dec 11:13:08 11:17:18 90° 83° (E) 11:21:31 145.865
Max Valier Satellite 13 Dec 11:18:13 11:20:00 13° 297° (WNW) 11:21:46 145.860
EO-79 13 Dec 11:27:16 11:31:23 56° 259° (W) 11:35:32 145.935-145.965
NO-84 13 Dec 11:30:17 11:33:08 22° 12° (NNE) 11:36:11 435.350 FM
BUGSAT 1 13 Dec 11:36:22 11:40:01 34° 69° (ENE) 11:43:40 437.445
AO-91 13 Dec 11:37:45 11:41:32 23° 66° (ENE) 11:45:03 145.960
ISS 13 Dec 11:39:10 11:41:28 18° 136° (SE) 11:43:46 437.550
POLYITAN 1 13 Dec 11:50:14 11:54:00 32° 263° (W) 11:57:47 437.675
SPROUT 13 Dec 11:54:59 11:58:41 28° 95° (E) 12:02:22 437.525
YUBILEINY 13 Dec 12:11:09 12:16:50 18° 55° (NE) 12:22:29 435.215
AO-7 13 Dec 12:16:17 12:21:51 20° 44° (NE) 12:27:26 .
QB50P2 13 Dec 12:17:08 12:19:48 16° 269° (W) 12:22:29 145.880/145.840
Oscar 19 13 Dec 12:21:14 12:26:17 62° 71° (ENE) 12:31:23 437.125/150
DUCHIFAT 1 13 Dec 12:24:53 12:27:51 19° 268° (W) 12:30:51 145.980
LO-87 13 Dec 12:26:22 12:28:53 19° 294° (WNW) 12:31:24 145.935 - 145.965
ESTCUBE 1 13 Dec 12:30:56 12:35:01 34° 293° (WNW) 12:39:06 437.505/2401.250
VELOX 1 13 Dec 12:35:48 12:40:04 46° 99° (E) 12:44:17 145.980
nSIGHT-1 13 Dec 12:39:00 12:42:12 71° 148° (SSE) 12:45:25 .
Gurwin Techsat 1B 13 Dec 12:48:24 12:53:42 79° 73° (ENE) 12:59:03 435.225
M-CUBED/EXP-1 PRIME 13 Dec 12:53:46 12:56:23 16° 53° (NE) 12:59:02 437.505
NO-84 13 Dec 13:07:17 13:10:58 58° 31° (NNE) 13:14:56 435.350 FM
BUGSAT 1 13 Dec 13:12:16 13:15:27 22° 266° (W) 13:18:37 437.445
AO-91 13 Dec 13:13:00 13:17:47 45° 261° (W) 13:22:08 145.960
ISS 13 Dec 13:14:19 13:17:36 79° 332° (NNW) 13:20:55 437.550
RS-15 13 Dec 13:15:19 13:24:32 26° 100° (E) 13:33:40 29.354- 29.394
UKube-1 13 Dec 13:25:53 13:29:14 22° 94° (E) 13:32:33 .
SPROUT 13 Dec 13:30:52 13:34:32 29° 293° (WNW) 13:38:11 437.525
ITAMSAT 1 13 Dec 13:31:12 13:34:52 20° 59° (ENE) 13:38:32 435.822/435.867
DX 1 13 Dec 13:37:13 13:41:24 44° 99° (E) 13:45:33 434.975-435.025
Oscar 19 13 Dec 14:02:30 14:06:02 19° 269° (W) 14:09:36 437.125/150
AO-7 13 Dec 14:05:01 14:13:15 72° 66° (ENE) 14:21:33 .
YUBILEINY 13 Dec 14:06:33 14:15:26 74° 79° (E) 14:24:12 435.215
50 SAT 13 Dec 14:10:43 14:13:50 56° 286° (WNW) 14:16:54 437.505
VELOX 1 13 Dec 14:12:55 14:16:12 21° 297° (WNW) 14:19:27 145.980
nSIGHT-1 13 Dec 14:15:36 14:18:36 34° 349° (NNW) 14:21:35 .
MOZHAYETS 4 13 Dec 14:16:50 14:20:03 18° 91° (E) 14:23:16
BEESAT 13 Dec 14:23:00 14:25:37 15° 90° (E) 14:28:13 436.000
M-CUBED/EXP-1 PRIME 13 Dec 14:25:46 14:30:05 78° 252° (WSW) 14:34:41 437.505
Gurwin Techsat 1B 13 Dec 14:31:16 14:34:16 15° 271° (W) 14:37:17 435.225
SO-50 13 Dec 14:38:56 14:40:43 12° 108° (ESE) 14:42:31 436.795
NO-84 13 Dec 14:44:49 14:48:06 26° 227° (SW) 14:51:31 435.350 FM
ITUPSAT 1 13 Dec 14:49:07 14:53:04 25° 94° (E) 14:57:00 437.325
ISS 13 Dec 14:51:26 14:54:26 31° 353° (N) 14:57:25 437.550
UKube-1 13 Dec 15:01:21 15:05:23 39° 291° (WNW) 15:09:23 .
ITAMSAT 1 13 Dec 15:08:38 15:13:50 67° 258° (WSW) 15:19:02 435.822/435.867
DX 1 13 Dec 15:14:03 15:17:17 21° 297° (WNW) 15:20:30 434.975-435.025
DOVE 4 13 Dec 15:18:55 15:23:39 35° 68° (ENE) 15:28:17 437.250
RS-15 13 Dec 15:22:58 15:35:20 85° 123° (ESE) 15:47:34 29.354- 29.394
CUBESAT XI-V 13 Dec 15:35:01 15:39:06 28° 95° (E) 15:43:09 437.345
nSIGHT-1 13 Dec 15:52:24 15:55:20 31° 8° (N) 15:58:16 .
MOZHAYETS 4 13 Dec 15:53:01 15:57:30 52° 289° (WNW) 16:02:00
BEESAT 13 Dec 15:59:08 16:03:53 70° 287° (WNW) 16:08:36 436.000
AO-7 13 Dec 15:59:48 16:06:41 28° 266° (W) 16:13:39 .
YUBILEINY 13 Dec 16:04:27 16:11:21 27° 281° (W) 16:18:13 435.215
LilacSat-2 13 Dec 16:05:38 16:08:03 16° 64° (ENE) 16:10:29 437.200
SO-50 13 Dec 16:16:00 16:20:28 86° 306° (NW) 16:25:01 436.795
KKS-1 13 Dec 16:18:58 16:21:33 15° 90° (E) 16:24:05 437.445
XW-2D 13 Dec 16:21:33 16:24:32 22° 67° (ENE) 16:27:33 145.860 - 145.880
CUTE-I 13 Dec 16:23:30 16:28:01 28° 63° (ENE) 16:32:33 437.470
ITUPSAT 1 13 Dec 16:26:33 16:31:01 40° 292° (WNW) 16:35:27 437.325
HO-68 13 Dec 16:27:23 16:32:49 24° 54° (NE) 16:38:15 435.675
ISS 13 Dec 16:28:20 16:31:26 36° 13° (NNE) 16:34:31 437.550
NUDT-PHONESAT 13 Dec 16:33:28 16:36:12 20° 66° (ENE) 16:38:57 437.300
KAITUO 1B 13 Dec 16:34:06 16:37:00 22° 67° (ENE) 16:39:56 145.475/437.950
XW-2B 13 Dec 16:36:55 16:40:16 31° 69° (ENE) 16:43:40 145.730 - 145.750
XW-2F 13 Dec 16:50:13 16:53:46 41° 71° (ENE) 16:57:22 145.980 - 146.000
DOVE 4 13 Dec 16:56:29 17:01:17 34° 265° (W) 17:05:58 437.250
CUTE 1.7 + AOD 2 13 Dec 17:01:47 17:04:44 19° 63° (ENE) 17:07:41 437.475
XW-2C 13 Dec 17:03:45 17:07:29 65° 75° (ENE) 17:11:17 145.795 - 145.815
STARS 13 Dec 17:06:08 17:09:13 19° 92° (E) 17:12:16 437.465
O/OREOS (USA 219) 13 Dec 17:10:04 17:13:41 23° 52° (NE) 17:17:17 437.305
CUBESAT XI-V 13 Dec 17:12:12 17:16:30 35° 292° (WNW) 17:20:46 437.345
nSIGHT-1 13 Dec 17:28:36 17:31:50 88° 26° (NNE) 17:35:03 .
CUBEBUG 2 13 Dec 17:33:03 17:36:21 23° 66° (ENE) 17:39:37 437.445
UWE-3 13 Dec 17:37:06 17:39:26 15° 62° (ENE) 17:41:47 435.000/436.395/437.385
RS-15 13 Dec 17:37:47 17:49:18 42° 331° (NNW) 18:00:35 29.354- 29.394
LilacSat-2 13 Dec 17:38:19 17:41:58 44° 261° (W) 17:45:41 437.200
BEESAT 13 Dec 17:40:02 17:40:46 10° 306° (NW) 17:41:30 436.000
KKS-1 13 Dec 17:54:07 17:58:29 60° 288° (WNW) 18:02:50 437.445
XW-2D 13 Dec 17:55:13 17:58:34 30° 264° (W) 18:01:58 145.860 - 145.880
SO-50 13 Dec 17:58:29 18:01:36 18° 327° (NNW) 18:04:45 436.795
CUTE-I 13 Dec 18:02:42 18:07:51 45° 261° (W) 18:13:01 437.470
ISS 13 Dec 18:04:49 18:08:04 62° 212° (SSW) 18:11:19 437.550
ZACube-1 13 Dec 18:05:28 18:07:57 16° 62° (ENE) 18:10:27 437.345
NUDT-PHONESAT 13 Dec 18:06:30 18:09:50 32° 263° (W) 18:13:13 437.300
KAITUO 1B 13 Dec 18:07:29 18:10:49 30° 264° (W) 18:14:12 145.475/437.950
XW-2B 13 Dec 18:11:34 18:14:30 21° 267° (W) 18:17:27 145.730 - 145.750
HO-68 13 Dec 18:12:34 18:19:46 83° 254° (WSW) 18:27:01 435.675
SEEDS 13 Dec 18:15:59 18:20:10 64° 74° (ENE) 18:24:23 437.485
XW-2F 13 Dec 18:25:42 18:28:04 16° 269° (W) 18:30:27 145.980 - 146.000
Oscar 11 13 Dec 18:27:29 18:30:16 17° 62° (ENE) 18:33:02 .
PCSat 13 Dec 18:34:11 18:39:11 40° 113° (ESE) 18:44:13 145.827
STRAND 1 13 Dec 18:35:05 18:38:54 21° 92° (E) 18:42:41 437.568
CUTE 1.7 + AOD 2 13 Dec 18:36:05 18:40:12 48° 261° (W) 18:44:22 437.475
AO-73 13 Dec 18:39:04 18:42:38 29° 68° (ENE) 18:46:14 145.935
AAUSAT CUBESAT 2 13 Dec 18:39:42 18:43:44 50° 72° (ENE) 18:47:48 437.432
XW-2C 13 Dec 18:41:25 18:42:06 10° 272° (W) 18:42:47 145.795 - 145.815
STARS 13 Dec 18:41:36 18:45:48 47° 290° (WNW) 18:49:58 437.465
O/OREOS (USA 219) 13 Dec 18:49:01 18:53:20 45° 252° (WSW) 18:57:35 437.305
XW-2A 13 Dec 19:04:14 19:07:33 79° 257° (WSW) 19:10:56 145.665 - 145.685
nSIGHT-1 13 Dec 19:05:41 19:07:38 15° 225° (SW) 19:09:35 .
CUBEBUG 2 13 Dec 19:08:54 19:12:47 35° 263° (W) 19:16:38 437.445
UWE-3 13 Dec 19:11:21 19:15:27 59° 259° (W) 19:19:33 435.000/436.395/437.385
ZACube-1 13 Dec 19:39:46 19:43:49 55° 260° (W) 19:47:54 437.345
SEEDS 13 Dec 19:54:15 19:56:16 13° 271° (W) 19:58:17 437.485
RS-15 13 Dec 19:55:29 20:05:57 31° 4° (N) 20:16:03 29.354- 29.394
DELFI C3 13 Dec 19:55:57 19:59:18 26° 68° (ENE) 20:02:41 145.870
Oscar 11 13 Dec 20:01:45 20:05:58 56° 260° (W) 20:10:14 .
HO-68 13 Dec 20:04:19 20:08:32 16° 273° (W) 20:12:48 435.675
BEESAT 3 13 Dec 20:06:49 20:10:27 34° 118° (ESE) 20:14:06 437.485
FO-29 13 Dec 20:11:47 20:18:43 53° 98° (E) 20:24:48 435.910
STRAND 1 13 Dec 20:13:26 20:18:25 54° 290° (WNW) 20:23:21 437.568
AO-73 13 Dec 20:15:23 20:18:51 26° 265° (W) 20:22:23 145.935
AAUSAT CUBESAT 2 13 Dec 20:16:51 20:19:28 16° 269° (W) 20:22:06 437.432
PCSat 13 Dec 20:17:34 20:22:36 38° 313° (NW) 20:27:40 145.827
Max Valier Satellite 13 Dec 20:23:53 20:27:12 34° 70° (ENE) 20:30:33 145.860
TIGRISAT 13 Dec 20:38:14 20:39:29 11° 88° (E) 20:40:44 435.000
UNISAT 6 13 Dec 20:40:24 20:42:28 13° 89° (E) 20:44:33 437.425
BEESAT 2 13 Dec 20:43:41 20:46:57 24° 115° (ESE) 20:50:15 435.950
EO-88 13 Dec 20:54:57 20:58:31 55° 73° (ENE) 21:02:06 145.990 - 145.960
AO-85 13 Dec 21:30:29 21:33:18 19° 112° (ESE) 21:36:14 145.980
DELFI C3 13 Dec 21:30:31 21:33:59 28° 265° (W) 21:37:26 145.870
LO-87 13 Dec 21:31:03 21:33:38 19° 67° (ENE) 21:36:14 145.935 - 145.965
BEESAT 3 13 Dec 21:44:29 21:48:00 29° 317° (NW) 21:51:33 437.485
PRISM 13 Dec 21:44:42 21:47:26 17° 92° (E) 21:50:08 437.425
ESTCUBE 1 13 Dec 21:55:55 22:00:00 34° 68° (ENE) 22:04:06 437.505/2401.250
FO-29 13 Dec 21:57:11 22:03:25 33° 300° (WNW) 22:09:02 435.910
Max Valier Satellite 13 Dec 21:58:35 22:01:07 18° 268° (W) 22:03:41 145.860
PCSat 13 Dec 22:05:45 22:07:38 12° 336° (NNW) 22:09:31 145.827
RS-15 13 Dec 22:10:23 22:22:02 51° 37° (NE) 22:33:03 29.354- 29.394
TIGRISAT 13 Dec 22:12:22 22:16:42 78° 285° (WNW) 22:21:05 435.000
UNISAT 6 13 Dec 22:15:18 22:19:36 67° 286° (WNW) 22:23:58 437.425
BEESAT 2 13 Dec 22:20:41 22:24:29 39° 313° (NW) 22:28:20 435.950
EO-88 13 Dec 22:31:21 22:32:30 11° 271° (W) 22:33:39 145.990 - 145.960
SPROUT 13 Dec 22:50:24 22:54:07 30° 67° (ENE) 22:57:50 437.525
NANOSAT C BR1 13 Dec 22:56:39 22:58:15 12° 89° (E) 22:59:51 145.865
LO-87 13 Dec 23:03:43 23:06:52 30° 263° (W) 23:10:01 145.935 - 145.965
SO-50 13 Dec 23:04:42 23:08:45 29° 41° (NE) 23:12:51 436.795
AO-85 13 Dec 23:09:30 23:13:19 47° 312° (NW) 23:17:23 145.980
EO-79 13 Dec 23:09:53 23:12:54 19° 92° (E) 23:15:55 145.935-145.965
PRISM 13 Dec 23:19:00 23:22:56 45° 289° (WNW) 23:26:50 437.425
FALCONSAT 3 13 Dec 23:30:30 23:32:12 13° 168° (SSE) 23:33:55 435.103
POLYITAN 1 13 Dec 23:31:57 23:35:44 31° 96° (E) 23:39:31 437.675
ESTCUBE 1 13 Dec 23:33:00 23:36:49 27° 265° (W) 23:40:41 437.505/2401.250
VELOX 1 13 Dec 23:34:55 23:39:15 56° 72° (ENE) 23:43:38 145.980
AIST 2D 13 Dec 23:37:07 23:40:38 62° 286° (WNW) 23:44:08 435.315
QB50P2 13 Dec 23:57:16 00:01:29 66° 102° (ESE) 00:05:41 145.880/145.840
DUCHIFAT 1 14 Dec 00:04:32 00:08:39 54° 100° (E) 00:12:46 145.980
UKube-1 14 Dec 00:22:26 00:26:01 26° 65° (ENE) 00:29:37 .
RS-15 14 Dec 00:23:24 00:34:57 63° 244° (WSW) 00:45:53 29.354- 29.394
SPROUT 14 Dec 00:26:21 00:29:58 27° 265° (W) 00:33:37 437.525
NANOSAT C BR1 14 Dec 00:30:14 00:34:25 69° 286° (WNW) 00:38:35 145.865
Oscar 19 14 Dec 00:31:11 00:34:41 18° 90° (E) 00:38:09 437.125/150
DX 1 14 Dec 00:34:41 00:38:56 54° 71° (ENE) 00:43:13 434.975-435.025
50 SAT 14 Dec 00:38:32 00:41:39 55° 73° (ENE) 00:44:47 437.505
EO-79 14 Dec 00:44:52 00:48:51 43° 289° (WNW) 00:52:50 145.935-145.965
SO-50 14 Dec 00:44:56 00:49:26 49° 240° (WSW) 00:53:58 436.795
BUGSAT 1 14 Dec 00:50:09 00:53:59 40° 99° (E) 00:57:47 437.445
AO-85 14 Dec 00:53:28 00:54:51 11° 335° (NNW) 00:56:17 145.980
AO-91 14 Dec 01:01:08 01:04:00 23° 94° (E) 01:06:44 145.960
Gurwin Techsat 1B 14 Dec 01:02:34 01:06:57 25° 93° (E) 01:11:17 435.225
POLYITAN 1 14 Dec 01:07:53 01:11:24 26° 294° (WNW) 01:14:55 437.675
FALCONSAT 3 14 Dec 01:08:14 01:10:30 16° 183° (S) 01:12:46 435.103
VELOX 1 14 Dec 01:13:13 01:16:02 16° 269° (W) 01:18:52 145.980
YUBILEINY 14 Dec 01:18:22 01:23:27 17° 74° (ENE) 01:28:31 435.215
MOZHAYETS 4 14 Dec 01:20:57 01:24:35 24° 65° (ENE) 01:28:14
BEESAT 14 Dec 01:31:16 01:35:01 24° 63° (ENE) 01:38:46 436.000
QB50P2 14 Dec 01:34:31 01:36:45 14° 299° (WNW) 01:38:59 145.880/145.840
PCSat 14 Dec 01:36:47 01:39:52 15° 30° (NNE) 01:42:57 145.827
DUCHIFAT 1 14 Dec 01:41:16 01:43:54 16° 298° (WNW) 01:46:32 145.980
ITUPSAT 1 14 Dec 01:57:57 02:02:22 39° 68° (ENE) 02:06:47 437.325
UKube-1 14 Dec 01:57:59 02:01:54 33° 263° (W) 02:05:52 .
AO-7 14 Dec 02:05:15 02:10:43 19° 88° (E) 02:16:09 .
Oscar 19 14 Dec 02:09:17 02:14:27 66° 288° (WNW) 02:19:36 437.125/150
DX 1 14 Dec 02:12:38 02:15:26 17° 269° (W) 02:18:15 434.975-435.025
BUGSAT 1 14 Dec 02:26:08 02:29:04 20° 296° (WNW) 02:32:00 437.445
AO-91 14 Dec 02:37:38 02:40:27 22° 294° (WNW) 02:43:08 145.960
RS-15 14 Dec 02:39:29 02:44:36 14° 267° (W) 02:49:38 29.354- 29.394
CUBESAT XI-V 14 Dec 02:40:24 02:44:39 36° 68° (ENE) 02:48:58 437.345
Gurwin Techsat 1B 14 Dec 02:42:01 02:47:07 48° 291° (WNW) 02:52:11 435.225
BEESAT 3 14 Dec 02:45:20 02:46:03 10° 27° (NNE) 02:46:46 437.485
MOZHAYETS 4 14 Dec 02:57:14 03:01:31 40° 262° (W) 03:05:51
BEESAT 14 Dec 03:07:58 03:12:31 45° 261° (W) 03:17:05 436.000
YUBILEINY 14 Dec 03:09:54 03:18:41 78° 95° (E) 03:27:33 435.215
KKS-1 14 Dec 03:19:04 03:22:21 21° 63° (ENE) 03:25:39 437.445
ITAMSAT 1 14 Dec 03:19:04 03:23:49 35° 97° (E) 03:28:31 435.822/435.867
PCSat 14 Dec 03:19:07 03:24:30 56° 53° (NE) 03:29:48 145.827
M-CUBED/EXP-1 PRIME 14 Dec 03:35:58 03:40:27 53° 105° (ESE) 03:44:41 437.505
ITUPSAT 1 14 Dec 03:36:21 03:40:18 26° 266° (W) 03:44:16 437.325
Oscar 19 14 Dec 03:51:27 03:52:47 11° 307° (NW) 03:54:07 437.125/150
